Hourly Weather Pazardzhik

Today, 5 July, Sunday

Time Temperature Precipitation Wind Pressure Humidity
00:00 +22°C° 0 mm 1 mps 741 mmHg 88%
01:00 +22°C° 0 mm 1 mps 741 mmHg 88%
02:00 +21°C° 0 mm 2 mps 741 mmHg 88%
03:00 +20°C° 0 mm 2 mps 741 mmHg 88%
04:00 +21°C° 0 mm 1 mps 741 mmHg 88%
05:00 +21°C° 0 mm 1 mps 741 mmHg 88%
06:00 +23°C° 0 mm 1 mps 741 mmHg 84%
07:00 +24°C° 0 mm 2 mps 741 mmHg 80%
08:00 +26°C° 0 mm 2 mps 741 mmHg 76%
09:00 +27°C° 0 mm 2 mps 741 mmHg 69%
10:00 +29°C° 0 mm 2 mps 741 mmHg 62%
11:00 +30°C° 0 mm 2 mps 742 mmHg 55%
12:00 +31°C° 0.3 mm 2 mps 741 mmHg 55%
13:00 +31°C° 0.3 mm 2 mps 741 mmHg 55%
14:00 +31°C° 0.3 mm 2 mps 740 mmHg 55%
15:00 +31°C° 0.5 mm 1 mps 740 mmHg 58%
16:00 +30°C° 0.5 mm 1 mps 740 mmHg 60%
17:00 +30°C° 0.5 mm 1 mps 739 mmHg 63%
18:00 +28°C° 0.4 mm 1 mps 739 mmHg 68%
19:00 +27°C° 0.4 mm 1 mps 739 mmHg 74%
20:00 +25°C° 0.4 mm 1 mps 739 mmHg 79%
21:00 +25°C° 0.4 mm 1 mps 740 mmHg 82%
22:00 +24°C° 0.4 mm 1 mps 740 mmHg 85%
23:00 +23°C° 0.4 mm 1 mps 740 mmHg 87%

Tomorrow, 6 July, Monday

Time Temperature Precipitation Wind Pressure Humidity
00:00 +23°C° 0 mm 1 mps 740 mmHg 88%
01:00 +22°C° 0 mm 1 mps 740 mmHg 88%
02:00 +22°C° 0 mm 1 mps 740 mmHg 88%
03:00 +22°C° 0 mm 1 mps 739 mmHg 89%
04:00 +22°C° 0 mm 1 mps 739 mmHg 89%
05:00 +22°C° 0 mm 1 mps 739 mmHg 89%
06:00 +23°C° 0 mm 1 mps 739 mmHg 86%
07:00 +25°C° 0 mm 1 mps 739 mmHg 82%
08:00 +26°C° 0 mm 1 mps 739 mmHg 78%
09:00 +27°C° 0.1 mm 1 mps 739 mmHg 71%
10:00 +29°C° 0.1 mm 2 mps 738 mmHg 63%
11:00 +31°C° 0.1 mm 2 mps 738 mmHg 55%
12:00 +31°C° 0.1 mm 2 mps 738 mmHg 54%
13:00 +32°C° 0.1 mm 2 mps 737 mmHg 53%
14:00 +33°C° 0.1 mm 3 mps 737 mmHg 52%
15:00 +32°C° 0.5 mm 2 mps 737 mmHg 54%
16:00 +31°C° 0.5 mm 2 mps 736 mmHg 57%
17:00 +31°C° 0.5 mm 2 mps 736 mmHg 60%
18:00 +29°C° 0.1 mm 2 mps 736 mmHg 65%
19:00 +28°C° 0.1 mm 1 mps 736 mmHg 70%
20:00 +26°C° 0.1 mm 1 mps 736 mmHg 76%
21:00 +25°C° 0.1 mm 1 mps 736 mmHg 78%
22:00 +25°C° 0.1 mm 1 mps 736 mmHg 80%
23:00 +24°C° 0.1 mm 1 mps 736 mmHg 83%

Day after tomorrow, 7 July, Tuesday

Time Temperature Precipitation Wind Pressure Humidity
00:00 +24°C° 0.1 mm 1 mps 736 mmHg 84%
01:00 +23°C° 0.1 mm 1 mps 736 mmHg 85%
02:00 +23°C° 0.1 mm 1 mps 735 mmHg 86%
03:00 +23°C° 0 mm 1 mps 735 mmHg 86%
04:00 +23°C° 0 mm 1 mps 735 mmHg 86%
05:00 +22°C° 0 mm 1 mps 735 mmHg 87%
06:00 +24°C° 0 mm 1 mps 735 mmHg 82%
07:00 +26°C° 0 mm 1 mps 735 mmHg 76%
08:00 +27°C° 0 mm 1 mps 735 mmHg 71%
09:00 +29°C° 0.1 mm 1 mps 736 mmHg 64%
10:00 +31°C° 0.1 mm 1 mps 736 mmHg 57%
11:00 +32°C° 0.1 mm 1 mps 736 mmHg 50%
12:00 +32°C° 0.4 mm 1 mps 736 mmHg 49%
13:00 +34°C° 0.4 mm 2 mps 736 mmHg 47%
14:00 +34°C° 0.4 mm 2 mps 736 mmHg 45%
15:00 +31°C° 1.3 mm 2 mps 736 mmHg 53%
16:00 +29°C° 1.3 mm 2 mps 736 mmHg 62%
17:00 +27°C° 1.3 mm 3 mps 736 mmHg 70%
18:00 +26°C° 0.7 mm 3 mps 736 mmHg 76%
19:00 +24°C° 0.7 mm 3 mps 737 mmHg 82%
20:00 +22°C° 0.7 mm 3 mps 737 mmHg 88%
21:00 +21°C° 0.1 mm 3 mps 738 mmHg 89%
22:00 +20°C° 0.1 mm 3 mps 738 mmHg 89%
23:00 +19°C° 0.1 mm 3 mps 739 mmHg 90%

8 July, Wednesday

Time Temperature Precipitation Wind Pressure Humidity
00:00 +19°C° 0.2 mm 2 mps 739 mmHg 89%
01:00 +18°C° 0.2 mm 2 mps 739 mmHg 89%
02:00 +18°C° 0.2 mm 2 mps 739 mmHg 89%
03:00 +18°C° 0.6 mm 2 mps 739 mmHg 90%
04:00 +18°C° 0.6 mm 2 mps 739 mmHg 91%
05:00 +18°C° 0.6 mm 2 mps 739 mmHg 92%
06:00 +18°C° 0.2 mm 2 mps 740 mmHg 91%
07:00 +18°C° 0.2 mm 2 mps 740 mmHg 89%
08:00 +19°C° 0.2 mm 2 mps 740 mmHg 88%
09:00 +20°C° 0.1 mm 2 mps 741 mmHg 81%
10:00 +22°C° 0.1 mm 3 mps 741 mmHg 75%
11:00 +25°C° 0.1 mm 3 mps 741 mmHg 69%
12:00 +24°C° 0.8 mm 3 mps 741 mmHg 72%
13:00 +22°C° 0.8 mm 3 mps 741 mmHg 75%
14:00 +22°C° 0.8 mm 3 mps 741 mmHg 78%
15:00 +21°C° 1.7 mm 3 mps 741 mmHg 81%
16:00 +21°C° 1.7 mm 3 mps 741 mmHg 84%
17:00 +20°C° 1.7 mm 3 mps 741 mmHg 87%
18:00 +20°C° 0.9 mm 2 mps 741 mmHg 88%
19:00 +20°C° 0.9 mm 2 mps 741 mmHg 90%
20:00 +19°C° 0.9 mm 2 mps 741 mmHg 91%
21:00 +19°C° 0 mm 2 mps 742 mmHg 92%
22:00 +18°C° 0 mm 2 mps 742 mmHg 92%
23:00 +18°C° 0 mm 2 mps 742 mmHg 92%

9 July, Thursday

Time Temperature Precipitation Wind Pressure Humidity
00:00 +18°C° 0 mm 2 mps 743 mmHg 91%
01:00 +18°C° 0 mm 2 mps 743 mmHg 90%
02:00 +18°C° 0 mm 2 mps 743 mmHg 89%
03:00 +17°C° 0 mm 2 mps 743 mmHg 89%
04:00 +17°C° 0 mm 2 mps 743 mmHg 89%
05:00 +17°C° 0 mm 2 mps 743 mmHg 90%
06:00 +18°C° 0 mm 2 mps 743 mmHg 85%
07:00 +20°C° 0 mm 2 mps 743 mmHg 81%
08:00 +21°C° 0 mm 2 mps 743 mmHg 77%
09:00 +24°C° 0 mm 2 mps 743 mmHg 70%
10:00 +26°C° 0 mm 2 mps 743 mmHg 63%
11:00 +28°C° 0 mm 2 mps 743 mmHg 56%
12:00 +29°C° 0 mm 2 mps 743 mmHg 55%
13:00 +29°C° 0 mm 2 mps 743 mmHg 53%
14:00 +30°C° 0 mm 2 mps 743 mmHg 52%
15:00 +29°C° 0.1 mm 2 mps 743 mmHg 56%
16:00 +28°C° 0.1 mm 2 mps 743 mmHg 60%
17:00 +28°C° 0.1 mm 3 mps 742 mmHg 64%
18:00 +26°C° 0.1 mm 2 mps 742 mmHg 70%
19:00 +25°C° 0.1 mm 1 mps 743 mmHg 76%
20:00 +24°C° 0.1 mm 1 mps 743 mmHg 82%
21:00 +23°C° 0 mm 1 mps 743 mmHg 83%
22:00 +23°C° 0 mm 1 mps 743 mmHg 85%
23:00 +22°C° 0 mm 1 mps 744 mmHg 86%

10 July, Friday

Time Temperature Precipitation Wind Pressure Humidity
00:00 +22°C° 0 mm 1 mps 744 mmHg 86%
01:00 +22°C° 0 mm 1 mps 744 mmHg 86%
02:00 +21°C° 0 mm 1 mps 744 mmHg 86%
03:00 +21°C° 0 mm 1 mps 744 mmHg 87%
04:00 +21°C° 0 mm 1 mps 744 mmHg 87%
05:00 +20°C° 0 mm 1 mps 744 mmHg 87%
06:00 +22°C° 0 mm 1 mps 744 mmHg 83%
07:00 +23°C° 0 mm 1 mps 744 mmHg 79%
08:00 +24°C° 0 mm 1 mps 744 mmHg 75%
09:00 +26°C° 0.1 mm 1 mps 744 mmHg 70%
10:00 +27°C° 0.1 mm 2 mps 744 mmHg 65%
11:00 +28°C° 0.1 mm 2 mps 744 mmHg 59%
12:00 +29°C° 0.1 mm 2 mps 743 mmHg 57%
13:00 +30°C° 0.1 mm 2 mps 743 mmHg 54%
14:00 +31°C° 0.1 mm 2 mps 743 mmHg 51%
15:00 +30°C° 0.1 mm 3 mps 743 mmHg 53%
16:00 +30°C° 0.1 mm 3 mps 743 mmHg 55%
17:00 +30°C° 0.1 mm 3 mps 742 mmHg 57%
18:00 +28°C° 0.1 mm 3 mps 742 mmHg 63%
19:00 +26°C° 0.1 mm 2 mps 743 mmHg 70%
20:00 +24°C° 0.1 mm 2 mps 743 mmHg 76%
21:00 +24°C° 0 mm 2 mps 743 mmHg 77%
22:00 +23°C° 0 mm 2 mps 743 mmHg 78%
23:00 +21°C° 0 mm 2 mps 744 mmHg 80%
Show more